{"data":{"norad_id":64181,"intl_designator":"2025-113M","name":"STARLINK-33917","alt_names":[],"object_type":"PAYLOAD","status":"ACTIVE","operator":null,"country":"US","launch_date":"2025-05-28","launch_site_code":"AFETR","launch_vehicle":null,"mission":null,"orbit_class":"UNKNOWN","rcs_meters":null,"size_class":null,"mass_kg":null,"dimensions":null,"purposes":["comms"],"wikipedia_slug":null,"has_3d_model":false,"image_url":null,"decayed_at":null,"tle_current":{"epoch":"2026-09-20T05:40:29.642880Z","epoch_age_seconds":163198,"freshness":"FRESH","line1":"1 64181U 25113M   26263.23645420  .00004787  00000+0  15273-3 0  9993","line2":"2 64181  53.1578 266.5909 0001153  87.6914 272.4221 15.34397326 74861","mean_motion":15.34397326,"eccentricity":0.0001153,"inclination_deg":53.1578,"raan_deg":266.5909,"arg_perigee_deg":87.6914,"mean_anomaly_deg":272.4221,"bstar":0.00015273,"rev_number":7486,"period_min":93.847921630176,"perigee_km":461.9224381141,"apogee_km":463.49993770623,"semimajor_km":6840.8481879102,"source":"CELESTRAK","updated_at":"2026-09-21T09:00:35.244915Z"}}}